EW5205 Weather Reports


Display with metric or nautical units.
time (UTC)temp
F
wind
direction
speed
MPH
gust
MPH
rain 1hr
in
rain 24hr
in
rain mn
in
humidity
%
barometer
mb
20260503231605 70 214 14.0 20.0 0.00 0.02 0.00 36 1017.0
20260503224610 70 201 13.0 23.0 0.00 0.13 0.00 36 1017.2
20260503223030 69 218 15.0 21.0 0.00 0.13 0.00 38 1017.4
20260503221622 69 197 12.0 21.0 0.00 0.13 0.00 36 1017.7
20260503220004 69 208 13.0 18.0 0.00 0.37 0.00 36 1017.8
20260503214545 69 207 14.0 22.0 0.00 0.37 0.00 38 1018.4
20260503213004 67 198 11.0 22.0 0.00 0.37 0.00 37 1018.6
20260503211555 68 249 13.0 26.0 0.00 0.37 0.00 38 1019.0
20260503204603 68 226 12.0 20.0 0.00 0.37 0.00 39 1019.6
20260503203020 67 228 10.0 17.0 0.00 0.37 0.00 38 1020.0
20260503201610 68 232 12.0 18.0 0.00 0.37 0.00 39 1020.3
20260503194519 66 252 9.0 16.0 0.00 0.37 0.00 42 1020.5
20260503193009 66 209 10.0 17.0 0.00 0.37 0.00 44 1020.8
20260503191603 65 226 9.0 14.0 0.00 0.37 0.00 45 1021.0
20260503184558 64 218 10.0 15.0 0.00 0.37 0.00 44 1021.6
20260503183018 63 257 8.0 14.0 0.00 0.37 0.00 51 1021.6
20260503181607 62 246 8.0 14.0 0.00 0.37 0.00 52 1022.0
20260503180004 61 249 9.0 14.0 0.00 0.37 0.00 53 1022.4
20260503174558 61 263 10.0 14.0 0.00 0.37 0.00 54 1022.7
20260503173014 60 240 7.0 12.0 0.00 0.37 0.00 56 1022.7
20260503171558 59 248 6.0 10.0 0.00 0.37 0.00 59 1022.8
20260503110109 35 67 0.0 0.0 0.00 0.37 0.00 31 1023.7
20260503081530 39 23 0.0 2.0 0.00 0.37 0.00 41 1024.1
20260503071521 41 25 3.0 4.0 0.00 0.37 0.00 43 1024.3
20260503054603 45 120 3.0 4.0 0.00 0.37 0.37 54 1023.8
20260503053100 44 148 3.0 5.0 0.00 0.37 0.37 54 1023.9
20260503051558 45 98 4.0 6.0 0.00 0.37 0.37 61 1024.1
20260503050057 46 128 4.0 8.0 0.00 0.37 0.37 63 1024.0
20260503044557 47 124 5.0 7.0 0.00 0.37 0.37 63 1024.1
20260503043037 48 98 7.0 10.0 0.00 0.37 0.37 66 1024.2
20260503041540 48 95 8.0 12.0 0.00 0.37 0.37 65 1024.2
20260503040042 48 107 9.0 12.0 0.00 0.37 0.37 64 1024.0
20260503034535 48 113 7.0 10.0 0.00 0.37 0.37 63 1024.0
20260503033038 48 98 6.0 8.0 0.00 0.37 0.37 62 1023.9
20260503031633 49 93 6.0 11.0 0.00 0.37 0.37 62 1023.6
20260503030044 49 93 8.0 11.0 0.00 0.37 0.37 63 1023.3
20260503024532 50 89 10.0 14.0 0.00 0.37 0.37 64 1023.2
20260503023032 49 91 8.0 12.0 0.00 0.37 0.37 63 1023.1
20260503021531 50 79 6.0 7.0 0.00 0.37 0.37 63 1022.9
20260503020031 51 79 3.0 4.0 0.00 0.37 0.37 64 1022.7
20260503014530 52 110 2.0 3.0 0.00 0.37 0.37 65 1022.6
20260503013035 53 95 3.0 5.0 0.00 0.37 0.37 66 1022.4
20260503011529 53 98 6.0 9.0 0.00 0.37 0.37 66 1022.4
20260503010034 53 100 6.0 8.0 0.00 0.37 0.37 66 1022.4
20260503004528 53 113 7.0 10.0 0.00 0.37 0.37 64 1022.5
20260503003027 53 105 5.0 7.0 0.00 0.37 0.37 64 1022.8
20260503001526 52 83 8.0 9.0 0.01 0.37 0.37 62 1022.9
20260503000026 52 65 7.0 10.0 0.03 0.37 0.37 58 1023.2
20260502234529 51 63 8.0 14.0 0.07 0.37 0.37 48 1023.2
20260502233027 50 48 8.0 12.0 0.10 0.37 0.37 41 1023.4